Weather History for Venice, Italy

Change the Weather History Date:

Tuesday, February 18, 2014

  Actual Average Record
Temperature  
Mean Temperature 49 °F -  
Max Temperature 57 °F 51 °F 59 °F (2011)
Min Temperature 41 °F 37 °F 26 °F (2008)
Degree Days  
Heating Degree Days 16    
Moisture  
Dew Point 43 °F    
Average Humidity 77    
Maximum Humidity 93    
Minimum Humidity 58    
Precipitation  
Precipitation 0.00 in 0.07 in - ()
Sea Level Pressure  
Sea Level Pressure 30.12 in    
Wind  
Wind Speed 4 mph ()    
Max Wind Speed 8 mph    
Max Gust Speed -    
Visibility 7.1 miles    
Events      
Averages and records for this station are not official NWS values.
T = Trace of Precipitation, MM = Missing Value Source: Averaged Metar Reports

Daily Weather History Graph

Daily Weather History Graph

Search for Another Location

Airport:

Trip Planner

Search our weather history database for the weather conditions in past years. The results will help you decide how hot, cold, wet, or windy it might be!

Date:

Astronomy

Feb. 18, 2014 Rise Set
Actual Time 7:08 AM CET 5:41 PM CET
Civil Twilight 6:37 AM CET 6:12 PM CET
Nautical Twilight 6:03 AM CET 6:46 PM CET
Astronomical Twilight 5:28 AM CET 7:20 PM CET
Moon 9:31 PM CET (2/18) 8:19 AM CET (2/18)
Length of Visible Light 11h 34m
Length of Day
10h 33m
Waning Gibbous, 89% of the Moon is Illuminated
Feb 18
Waning Gibbous
Feb 22
Last Quarter
Mar 1
New
Mar 8
First Quarter
Mar 16
Full

Hourly Weather History & Observations

Time (CET) Temp. Windchill Dew Point Humidity Pressure Visibility Wind Dir Wind Speed Gust Speed Precip Events Conditions
12:20 AM 46.4 °F 45.2 °F 39.2 °F 76% 30.09 in - Variable 3.5 mph - N/A   Clear
12:50 AM 46.4 °F 45.2 °F 39.2 °F 76% 30.12 in - Variable 3.5 mph - N/A   Clear
1:00 AM 45 °F - 40 °F 75% 30.13 in 12 mi NNE 2.3 mph - -  
1:20 AM 46.4 °F - 39.2 °F 76% 30.12 in - Variable 2.3 mph - N/A   Clear
1:50 AM 44.6 °F - 39.2 °F 81% 30.12 in - Variable 2.3 mph - N/A   Clear
2:20 AM 42.8 °F 40.1 °F 39.2 °F 87% 30.12 in - North 4.6 mph - N/A   Clear
2:50 AM 42.8 °F 40.1 °F 39.2 °F 87% 30.12 in - North 4.6 mph - N/A   Clear
3:20 AM 42.8 °F 40.1 °F 41.0 °F 93% 30.12 in - North 4.6 mph - N/A   Clear
3:50 AM 44.6 °F - 41.0 °F 87% 30.12 in - Variable 1.2 mph - N/A   Clear
4:00 AM 44 °F - 41 °F 84% 30.14 in 11 mi North 1.2 mph - -  
4:20 AM 42.8 °F - 39.2 °F 87% 30.12 in - Variable 2.3 mph - N/A   Clear
4:50 AM 42.8 °F 41.1 °F 39.2 °F 87% 30.12 in - Variable 3.5 mph - N/A   Clear
5:20 AM 42.8 °F 40.1 °F 41.0 °F 93% 30.12 in - North 4.6 mph - N/A   Clear
5:50 AM 42.8 °F 41.1 °F 39.2 °F 87% 30.12 in - Variable 3.5 mph - N/A   Clear
6:20 AM 42.8 °F 41.1 °F 39.2 °F 87% 30.15 in - Variable 3.5 mph - N/A   Clear
6:50 AM 44.6 °F 43.1 °F 41.0 °F 87% 30.12 in - Variable 3.5 mph - N/A   Clear
7:00 AM 44 °F - 41 °F 83% 30.16 in 9 mi NNE 2.3 mph - -  
7:20 AM 44.6 °F 42.2 °F 41.0 °F 87% 30.15 in - North 4.6 mph - N/A   Clear
7:50 AM 42.8 °F 40.1 °F 41.0 °F 93% 30.15 in - NNE 4.6 mph - N/A   Clear
8:20 AM 42.8 °F 41.1 °F 39.2 °F 87% 30.15 in - Variable 3.5 mph - N/A   Clear
8:50 AM 44.6 °F 43.1 °F 42.8 °F 93% 30.15 in - Variable 3.5 mph - N/A   Clear
9:20 AM 46.4 °F 45.2 °F 44.6 °F 93% 30.15 in - Variable 3.5 mph - N/A   Clear
9:50 AM 48.2 °F - 42.8 °F 82% 30.15 in - NNE 4.6 mph - N/A   Clear
10:00 AM 48 °F - 44 °F 79% 30.17 in 12 mi North 4.6 mph - -   Partly Cloudy
10:20 AM 50.0 °F - 42.8 °F 76% 30.15 in 6.2 mi NE 5.8 mph - N/A   Scattered Clouds
10:50 AM 51.8 °F - 42.8 °F 71% 30.15 in 6.2 mi NNE 6.9 mph - N/A   Scattered Clouds
11:20 AM 51.8 °F - 42.8 °F 71% 30.18 in 6.2 mi NNE 6.9 mph - N/A   Scattered Clouds
11:50 AM 51.8 °F - 42.8 °F 71% 30.15 in 6.2 mi NNE 5.8 mph - N/A   Mostly Cloudy
12:20 PM 53.6 °F - 42.8 °F 67% 30.15 in 6.2 mi NNE 5.8 mph - N/A   Mostly Cloudy
12:50 PM 53.6 °F - 44.6 °F 72% 30.15 in 6.2 mi NNE 4.6 mph - N/A   Mostly Cloudy
1:00 PM 53 °F - 44 °F 61% 30.17 in 12 mi NNE 5.8 mph - -   Mostly Cloudy
1:20 PM 55.4 °F - 44.6 °F 67% 30.15 in 6.2 mi Variable 3.5 mph - N/A   Mostly Cloudy
1:50 PM 55.4 °F - 44.6 °F 67% 30.15 in 6.2 mi Variable 3.5 mph - N/A   Mostly Cloudy
2:20 PM 55.4 °F - 46.4 °F 72% 30.15 in 6.2 mi Variable 1.2 mph - N/A   Mostly Cloudy
2:50 PM 55.4 °F - 46.4 °F 72% 30.12 in 6.2 mi NNE 5.8 mph - N/A   Mostly Cloudy
3:20 PM 55.4 °F - 44.6 °F 67% 30.12 in 6.2 mi NNE 4.6 mph - N/A   Partly Cloudy
3:50 PM 57.2 °F - 46.4 °F 67% 30.12 in 6.2 mi NNE 5.8 mph - N/A   Scattered Clouds
4:00 PM 57 °F - 46 °F 58% 30.13 in 9 mi NNE 5.8 mph - -   Partly Cloudy
4:20 PM 57.2 °F - 44.6 °F 63% 30.12 in 6.2 mi NNE 4.6 mph - N/A   Mostly Cloudy
4:50 PM 57.2 °F - 46.4 °F 67% 30.09 in 6.2 mi Variable 3.5 mph - N/A   Scattered Clouds
5:20 PM 55.4 °F - 46.4 °F 72% 30.09 in 6.2 mi Variable 2.3 mph - N/A   Scattered Clouds
5:50 PM 53.6 °F - 48.2 °F 82% 30.09 in 6.2 mi Variable 2.3 mph - N/A   Mostly Cloudy
6:20 PM 53.6 °F - 48.2 °F 82% 30.09 in 6.2 mi Variable 2.3 mph - N/A   Mostly Cloudy
6:50 PM 55.4 °F - 48.2 °F 77% 30.09 in 6.2 mi Variable 3.5 mph - N/A   Mostly Cloudy
7:00 PM 55 °F - 48 °F 70% 30.10 in 9 mi NE 3.5 mph - -   Mostly Cloudy
7:20 PM 55.4 °F - 46.4 °F 72% 30.09 in 6.2 mi Variable 3.5 mph - N/A   Mostly Cloudy
7:50 PM 53.6 °F - 46.4 °F 77% 30.09 in 6.2 mi Variable 3.5 mph - N/A   Mostly Cloudy
8:20 PM 55.4 °F - 46.4 °F 72% 30.09 in 6.2 mi NNE 6.9 mph - N/A   Mostly Cloudy
8:50 PM 53.6 °F - 46.4 °F 77% 30.09 in 6.2 mi North 5.8 mph - N/A   Scattered Clouds
9:20 PM 53.6 °F - 46.4 °F 77% 30.09 in 6.2 mi NNE 5.8 mph - N/A   Scattered Clouds
9:50 PM 53.6 °F - 46.4 °F 77% 30.09 in 6.2 mi NNE 5.8 mph - N/A   Scattered Clouds
10:00 PM 54 °F - 46 °F 67% 30.11 in 9 mi NNE 5.8 mph - -   Mostly Cloudy
10:20 PM 53.6 °F - 46.4 °F 77% 30.09 in 6.2 mi NNE 5.8 mph - N/A   Mostly Cloudy
10:50 PM 53.6 °F - 46.4 °F 77% 30.09 in 6.2 mi NNE 6.9 mph - N/A   Mostly Cloudy
11:20 PM 53.6 °F - 44.6 °F 72% 30.06 in 6.2 mi NE 8.1 mph - N/A   Mostly Cloudy
11:50 PM 53.6 °F - 44.6 °F 72% 30.06 in 6.2 mi NE 8.1 mph - N/A   Mostly Cloudy